Regional Weather Roundup
Issued by NWS

Home | Current Version | Previous Version | Graphics & Text | Print | Product List | Glossary On
Versions: 1 2 3 4 5 6 7 8 9 10 11 12 13 14 15 16 17 18 19 20 21 22 23 24 25 26 27 28 29 30 31 32 33 34 35 36 37 38 39 40 41 42 43 44 45 46 47 48 49
000
ASUS45 KCYS 022210
RWRWY

WYOMING REGIONAL WEATHER ROUNDUP
NATIONAL WEATHER SERVICE CHEYENNE WY
300 PM MST MON MAR 02 2015

NOTE:  "FAIR" INDICATES FEW OR NO CLOUDS BELOW 12,000 FEET
WITH NO SIGNIFICANT WEATHER AND/OR OBSTRUCTIONS TO VISIBILITY.

WYZ001-022300-
YELLOWSTONE NATIONAL PARK

CITY           SKY/WX    TMP DP  RH WIND       PRES   REMARKS
LK YELLOWSTONE   N/A     28   3  34 E5        29.65F WCI  23
W YELLOWSTONE  NOT AVBL

$$
WYZ002>013-054>058-071-098>099-022300-
NORTHERN WYOMING

CITY           SKY/WX    TMP DP  RH WIND       PRES   REMARKS
JACKSON        NOT AVBL
CODY           FAIR      37  19  48 N9        29.69R WCI  31
GREYBULL       PTSUNNY   40  13  33 CALM      29.69F
WORLAND        FAIR      37  17  44 N3        29.69F
SHERIDAN       FAIR      41  11  29 SW5       29.72F
BUFFALO        FAIR      40   9  28 N3        29.71F
GILLETTE       FAIR      42  11  28 N8        29.70F
HULETT         FAIR      41  14  33 CALM      29.72S
NEWCASTLE      FAIR      41  21  45 W3        29.72F

$$
WYZ014>020-022>026-101>103-022300-
CENTRAL WYOMING

CITY           SKY/WX    TMP DP  RH WIND       PRES   REMARKS
BIG PINEY      PTSUNNY   31  19  61 E6        29.64F WCI  25
PINEDALE       MOCLDY    28  19  69 NW3       29.65F
DUBOIS         CLOUDY    28  18  64 S10       29.61R WCI  19
LANDER         FAIR      26  15  63 CALM      29.67F
RIVERTON       CLOUDY    25  15  66 SE5       29.68F WCI  19
CASPER         LGT RAIN  35  34  96 CALM      29.65F
DOUGLAS        LGT SNOW  33  31  92 SE7       29.69F VSB 3/4 WCI  27

$$
WYZ021-027>030-104>119-022300-
SOUTHERN WYOMING

CITY           SKY/WX    TMP DP  RH WIND       PRES   REMARKS
EVANSTON       CLOUDY    31  24  75 VRB3      29.63F
KEMMERER       CLOUDY    32  27  80 E7        29.64S WCI  26
FORT BRIDGER   CLOUDY    29  27  90 CALM      29.67F
ROCK SPRINGS   LGT SNOW  31  29  92 N5        29.63F VSB 1   WCI  26
DIXON          MOCLDY    45  34  65 S23G29    29.64F
RAWLINS        LGT SNOW  32  29  88 CALM      29.62F FOG
SARATOGA       CLOUDY    41  32  70 S14       29.62F
LARAMIE        FAIR      44  31  60 SW17      29.63F
CHEYENNE       FAIR      37  24  59 S10       29.67F WCI  30
TORRINGTON     FAIR      47  24  40 SE13G21   29.69F
PINE BLUFFS    FAIR      43  27  52 S12       29.70F

$$



USA.gov is the U.S. government's official web portal to all federal, state and local government web resources and services.